IBE237 SBBE-SMJP

Flight info

Callsign IBE237
Flight time 1h 25m
Altitude 38000
Route KOGVU UZ41 OTONI UG449 VILAS DCT ZY
Aircraft A21N/M-SDE2E3FGHIRWXY/LB1

Departure

Time 2026-04-21 16:14
Airport Val de Cans/Júlio Cezar Ribeiro International Airport (SBBE)

Arrival

Time 2026-04-21 17:40
Airport Johan Adolf Pengel International Airport (SMJP)
Time Latitude Longitude Altitude Speed Heading
2026-04-21 15:35 -1.38852 -48.47886 60 ft 0 kts 227°
2026-04-21 16:01 -1.38847 -48.47881 70 ft 2 kts 227°
2026-04-21 16:01 -1.38834 -48.47866 87 ft 3 kts 230°
2026-04-21 16:01 -1.38822 -48.47851 58 ft 3 kts 234°
2026-04-21 16:02 -1.38811 -48.47834 60 ft 4 kts 244°
2026-04-21 16:02 -1.38804 -48.47816 62 ft 4 kts 270°
2026-04-21 16:02 -1.38805 -48.47805 62 ft 4 kts 334°
2026-04-21 16:02 -1.38807 -48.47804 62 ft 0 kts
2026-04-21 16:05 -1.38799 -48.47804 63 ft 3 kts
2026-04-21 16:05 -1.38772 -48.47801 69 ft 6 kts
2026-04-21 16:06 -1.38722 -48.47797 70 ft 9 kts
2026-04-21 16:06 -1.38667 -48.47764 71 ft 12 kts 73°
2026-04-21 16:06 -1.38660 -48.47701 72 ft 7 kts 70°
2026-04-21 16:06 -1.38609 -48.47670 63 ft 10 kts
2026-04-21 16:07 -1.38529 -48.47670 67 ft 13 kts 360°
2026-04-21 16:07 -1.38434 -48.47666 67 ft 15 kts
2026-04-21 16:07 -1.38322 -48.47654 63 ft 17 kts
2026-04-21 16:07 -1.38192 -48.47643 70 ft 20 kts
2026-04-21 16:08 -1.37955 -48.47623 67 ft 7 kts
2026-04-21 16:08 -1.37905 -48.47598 64 ft 10 kts 41°
2026-04-21 16:08 -1.37848 -48.47543 62 ft 13 kts 45°
2026-04-21 16:09 -1.37775 -48.47469 68 ft 16 kts 46°
2026-04-21 16:09 -1.37690 -48.47381 67 ft 19 kts 45°
2026-04-21 16:09 -1.37592 -48.47283 69 ft 22 kts 46°
2026-04-21 16:09 -1.37481 -48.47170 69 ft 24 kts 45°
2026-04-21 16:10 -1.37357 -48.47047 66 ft 26 kts 45°
2026-04-21 16:10 -1.37224 -48.46913 69 ft 28 kts 45°
2026-04-21 16:10 -1.37146 -48.46834 63 ft 14 kts 45°
2026-04-21 16:10 -1.37088 -48.46775 65 ft 6 kts 44°
2026-04-21 16:11 -1.37037 -48.46769 69 ft 9 kts 15°
2026-04-21 16:11 -1.37018 -48.46721 62 ft 8 kts 151°
2026-04-21 16:11 -1.37043 -48.46733 68 ft 3 kts 221°
2026-04-21 16:11 -1.37053 -48.46741 68 ft 0 kts 223°
2026-04-21 16:13 -1.37054 -48.46741 68 ft 3 kts 223°
2026-04-21 16:13 -1.37218 -48.46901 65 ft 72 kts 230°
2026-04-21 16:13 -1.37738 -48.47437 64 ft 143 kts 227°
2026-04-21 16:14 -1.38536 -48.48247 460 ft 163 kts 229°
2026-04-21 16:14 -1.39257 -48.49040 1375 ft 156 kts 229°
2026-04-21 16:14 -1.40057 -48.49862 2109 ft 172 kts 224°
2026-04-21 16:14 -1.40929 -48.50694 2737 ft 177 kts 228°
2026-04-21 16:15 -1.41382 -48.51945 3258 ft 213 kts 269°
2026-04-21 16:15 -1.40874 -48.53438 3783 ft 247 kts 307°
2026-04-21 16:15 -1.39588 -48.54680 4487 ft 269 kts 320°
2026-04-21 16:15 -1.38203 -48.56006 5497 ft 283 kts 312°
2026-04-21 16:16 -1.36980 -48.57582 6724 ft 285 kts 306°
2026-04-21 16:16 -1.35882 -48.59230 7786 ft 290 kts 303°
2026-04-21 16:16 -1.34803 -48.60966 8846 ft 297 kts 301°
2026-04-21 16:16 -1.33719 -48.62753 9939 ft 305 kts 301°
2026-04-21 16:17 -1.32607 -48.64602 10776 ft 316 kts 301°
2026-04-21 16:17 -1.31467 -48.66526 11402 ft 335 kts 301°
2026-04-21 16:17 -1.30262 -48.68592 12055 ft 350 kts 300°
2026-04-21 16:17 -1.29024 -48.70727 12924 ft 357 kts 300°
2026-04-21 16:18 -1.27781 -48.72873 13858 ft 363 kts 300°
2026-04-21 16:18 -1.26499 -48.75074 14743 ft 368 kts 300°
2026-04-21 16:18 -1.25194 -48.77310 15591 ft 372 kts 300°
2026-04-21 16:18 -1.23885 -48.79561 16414 ft 376 kts 300°
2026-04-21 16:19 -1.22579 -48.81814 17201 ft 381 kts 300°
2026-04-21 16:19 -1.21238 -48.84140 17977 ft 386 kts 300°
2026-04-21 16:19 -1.19901 -48.86449 18657 ft 390 kts 300°
2026-04-21 16:19 -1.18511 -48.88836 19298 ft 394 kts 300°
2026-04-21 16:20 -1.17146 -48.91187 19933 ft 399 kts 300°
2026-04-21 16:20 -1.15738 -48.93608 20580 ft 403 kts 300°
2026-04-21 16:20 -1.14315 -48.96054 21222 ft 407 kts 300°
2026-04-21 16:20 -1.12896 -48.98501 21865 ft 411 kts 300°
2026-04-21 16:21 -1.11448 -49.00996 22520 ft 415 kts 300°
2026-04-21 16:21 -1.10006 -49.03485 23148 ft 419 kts 300°
2026-04-21 16:21 -1.08533 -49.06030 23715 ft 423 kts 300°
2026-04-21 16:21 -1.07048 -49.08590 24210 ft 427 kts 300°
2026-04-21 16:22 -1.06053 -49.10298 24522 ft 430 kts 300°
2026-04-21 16:22 -1.04048 -49.13755 25175 ft 435 kts 300°
2026-04-21 16:22 -1.02517 -49.16395 25656 ft 438 kts 300°
2026-04-21 16:22 -1.00972 -49.19046 26127 ft 442 kts 300°
2026-04-21 16:23 -0.99419 -49.21714 26595 ft 446 kts 300°
2026-04-21 16:23 -0.97869 -49.24379 27045 ft 449 kts 300°
2026-04-21 16:23 -0.96283 -49.27108 27496 ft 452 kts 300°
2026-04-21 16:23 -0.94713 -49.29814 27928 ft 456 kts 300°
2026-04-21 16:24 -0.93116 -49.32574 28350 ft 459 kts 300°
2026-04-21 16:24 -0.91510 -49.35356 28771 ft 463 kts 300°
2026-04-21 16:24 -0.89902 -49.38121 29187 ft 466 kts 300°
2026-04-21 16:24 -0.88263 -49.40939 29591 ft 469 kts 300°
2026-04-21 16:25 -0.86609 -49.43777 29993 ft 473 kts 300°
2026-04-21 16:25 -0.85512 -49.45664 30228 ft 475 kts 300°
2026-04-21 16:25 -0.83336 -49.49482 30832 ft 475 kts 299°
2026-04-21 16:25 -0.82249 -49.51384 31145 ft 475 kts 299°
2026-04-21 16:26 -0.80604 -49.54258 31642 ft 474 kts 299°
2026-04-21 16:26 -0.78959 -49.57115 32145 ft 474 kts 300°
2026-04-21 16:26 -0.77301 -49.59973 32649 ft 473 kts 300°
2026-04-21 16:26 -0.75658 -49.62791 33121 ft 473 kts 300°
2026-04-21 16:27 -0.73996 -49.65640 33581 ft 473 kts 300°
2026-04-21 16:27 -0.72356 -49.68462 34022 ft 472 kts 300°
2026-04-21 16:27 -0.70697 -49.71317 34444 ft 471 kts 300°
2026-04-21 16:27 -0.69039 -49.74135 34869 ft 470 kts 300°
2026-04-21 16:28 -0.67403 -49.76932 35280 ft 468 kts 300°
2026-04-21 16:28 -0.65761 -49.79754 35695 ft 467 kts 300°
2026-04-21 16:28 -0.64043 -49.82472 36069 ft 466 kts 307°
2026-04-21 16:28 -0.61861 -49.84877 36429 ft 465 kts 318°
2026-04-21 16:29 -0.59387 -49.86967 36843 ft 464 kts 321°
2026-04-21 16:29 -0.56901 -49.88953 37216 ft 462 kts 322°
2026-04-21 16:29 -0.54377 -49.90955 37595 ft 461 kts 322°
2026-04-21 16:29 -0.51870 -49.92975 37949 ft 460 kts 321°
2026-04-21 16:30 -0.49431 -49.94987 38294 ft 460 kts 321°
2026-04-21 16:30 -0.46965 -49.97024 38707 ft 459 kts 321°
2026-04-21 16:30 -0.44492 -49.99061 38933 ft 462 kts 321°
2026-04-21 16:31 -0.39528 -50.03121 38965 ft 461 kts 321°
2026-04-21 16:31 -0.34547 -50.07160 38945 ft 461 kts 322°
2026-04-21 16:32 -0.29570 -50.11169 38941 ft 461 kts 322°
2026-04-21 16:32 -0.24550 -50.15205 38941 ft 461 kts 321°
2026-04-21 16:33 -0.19631 -50.19276 38941 ft 461 kts 321°
2026-04-21 16:33 -0.14625 -50.23320 38941 ft 462 kts 322°
2026-04-21 16:34 -0.09627 -50.27344 38939 ft 463 kts 321°
2026-04-21 16:34 -0.04639 -50.31398 38937 ft 463 kts 321°
2026-04-21 16:35 0.00342 -50.35455 38938 ft 461 kts 321°
2026-04-21 16:35 0.05310 -50.39496 38936 ft 457 kts 322°
2026-04-21 16:36 0.10250 -50.43507 38938 ft 460 kts 321°
2026-04-21 16:36 0.15220 -50.47555 38940 ft 462 kts 321°
2026-04-21 16:37 0.20194 -50.51606 38938 ft 463 kts 321°
2026-04-21 16:37 0.25192 -50.55686 38937 ft 462 kts 321°
2026-04-21 16:38 0.30172 -50.59729 38939 ft 462 kts 322°
2026-04-21 16:38 0.35178 -50.63799 38935 ft 461 kts 321°
2026-04-21 16:39 0.40140 -50.67843 38930 ft 463 kts 321°
2026-04-21 16:39 0.45122 -50.71898 38931 ft 464 kts 321°
2026-04-21 16:40 0.50135 -50.75979 38929 ft 464 kts 321°
2026-04-21 16:40 0.55116 -50.80031 38926 ft 464 kts 321°
2026-04-21 16:41 0.60139 -50.84121 38928 ft 463 kts 321°
2026-04-21 16:41 0.65120 -50.88174 38931 ft 463 kts 321°
2026-04-21 16:42 0.70119 -50.92257 38930 ft 464 kts 321°
2026-04-21 16:42 0.75142 -50.96348 38930 ft 465 kts 321°
2026-04-21 16:43 0.80167 -51.00390 38927 ft 466 kts 322°
2026-04-21 16:43 0.85240 -51.04438 38923 ft 465 kts 321°
2026-04-21 16:44 0.90286 -51.08479 38928 ft 465 kts 321°
2026-04-21 16:44 0.95299 -51.12508 38931 ft 464 kts 321°
2026-04-21 16:45 1.00314 -51.16561 38925 ft 464 kts 321°
2026-04-21 16:45 1.05365 -51.20598 38929 ft 464 kts 321°
2026-04-21 16:46 1.10401 -51.24620 38927 ft 466 kts 321°
2026-04-21 16:46 1.15459 -51.28672 38926 ft 466 kts 321°
2026-04-21 16:47 1.20498 -51.32717 38926 ft 466 kts 321°
2026-04-21 16:47 1.25559 -51.36774 38930 ft 466 kts 322°
2026-04-21 16:48 1.30630 -51.40840 38929 ft 468 kts 322°
2026-04-21 16:48 1.35709 -51.44917 38926 ft 468 kts 322°
2026-04-21 16:49 1.40795 -51.49000 38926 ft 468 kts 322°
2026-04-21 16:49 1.45861 -51.53067 38925 ft 468 kts 322°
2026-04-21 16:50 1.50937 -51.57147 38923 ft 467 kts 322°
2026-04-21 16:50 1.55996 -51.61197 38928 ft 469 kts 322°
2026-04-21 16:51 1.61101 -51.65292 38927 ft 469 kts 322°
2026-04-21 16:51 1.66174 -51.69363 38925 ft 469 kts 322°
2026-04-21 16:52 1.71276 -51.73464 38928 ft 469 kts 322°
2026-04-21 16:52 1.76348 -51.77537 38928 ft 469 kts 322°
2026-04-21 16:53 1.81419 -51.81611 38923 ft 469 kts 321°
2026-04-21 16:53 1.86499 -51.85693 38929 ft 469 kts 321°
2026-04-21 16:54 1.91587 -51.89775 38928 ft 470 kts 321°
2026-04-21 16:54 1.96699 -51.93876 38929 ft 470 kts 321°
2026-04-21 16:55 2.01776 -51.97959 38930 ft 470 kts 321°
2026-04-21 16:55 2.06882 -52.02054 38929 ft 469 kts 321°
2026-04-21 16:56 2.11982 -52.06149 38931 ft 469 kts 321°
2026-04-21 16:56 2.17037 -52.10210 38931 ft 467 kts 321°
2026-04-21 16:57 2.22102 -52.14277 38927 ft 465 kts 321°
2026-04-21 16:57 2.27133 -52.18323 38930 ft 467 kts 321°
2026-04-21 16:58 2.32233 -52.22413 38936 ft 468 kts 321°
2026-04-21 16:58 2.37287 -52.26477 38935 ft 468 kts 321°
2026-04-21 16:59 2.42361 -52.30558 38934 ft 467 kts 321°
2026-04-21 16:59 2.47420 -52.34616 38933 ft 467 kts 321°
2026-04-21 17:00 2.52496 -52.38705 38933 ft 467 kts 321°
2026-04-21 17:00 2.56707 -52.42095 38933 ft 468 kts 321°
2026-04-21 17:01 2.62625 -52.46849 38933 ft 467 kts 321°
2026-04-21 17:01 2.67589 -52.50993 38935 ft 466 kts 316°
2026-04-21 17:02 2.72251 -52.55488 38935 ft 466 kts 315°
2026-04-21 17:02 2.76904 -52.60054 38932 ft 467 kts 315°
2026-04-21 17:03 2.81547 -52.64555 38927 ft 468 kts 315°
2026-04-21 17:03 2.86240 -52.69078 38928 ft 468 kts 316°
2026-04-21 17:04 2.90918 -52.73576 38931 ft 467 kts 316°
2026-04-21 17:04 2.95648 -52.78043 38934 ft 467 kts 316°
2026-04-21 17:05 3.00329 -52.82526 38934 ft 467 kts 316°
2026-04-21 17:05 3.05023 -52.87050 38933 ft 468 kts 315°
2026-04-21 17:06 3.09704 -52.91568 38929 ft 464 kts 315°
2026-04-21 17:06 3.14351 -52.96041 38932 ft 467 kts 315°
2026-04-21 17:07 3.18280 -52.99827 38924 ft 467 kts 315°
2026-04-21 17:07 3.23735 -53.05091 38929 ft 467 kts 315°
2026-04-21 17:08 3.28393 -53.09580 38929 ft 466 kts 315°
2026-04-21 17:08 3.33067 -53.14090 38930 ft 465 kts 315°
2026-04-21 17:09 3.40037 -53.20822 38929 ft 465 kts 315°
2026-04-21 17:09 3.44707 -53.25325 38925 ft 463 kts 315°
2026-04-21 17:10 3.49322 -53.29776 38926 ft 462 kts 315°
2026-04-21 17:10 3.53963 -53.34255 38931 ft 463 kts 315°
2026-04-21 17:11 3.58589 -53.38717 38932 ft 464 kts 315°
2026-04-21 17:11 3.63238 -53.43220 38931 ft 464 kts 315°
2026-04-21 17:12 3.67115 -53.46960 38926 ft 464 kts 315°
2026-04-21 17:12 3.71752 -53.51435 38926 ft 463 kts 315°
2026-04-21 17:13 3.76344 -53.55888 38927 ft 461 kts 315°
2026-04-21 17:13 3.80975 -53.60362 38928 ft 462 kts 315°
2026-04-21 17:14 3.85594 -53.64821 38923 ft 462 kts 315°
2026-04-21 17:14 3.90186 -53.69265 38322 ft 461 kts 315°
2026-04-21 17:15 3.92519 -53.71524 37406 ft 468 kts 315°
2026-04-21 17:15 3.94856 -53.73799 36698 ft 468 kts 315°
2026-04-21 17:15 3.97182 -53.76055 35705 ft 475 kts 315°
2026-04-21 17:15 3.99574 -53.78362 34922 ft 476 kts 316°
2026-04-21 17:16 4.01967 -53.80667 34310 ft 473 kts 316°
2026-04-21 17:16 4.04323 -53.82940 33967 ft 467 kts 315°
2026-04-21 17:16 4.06619 -53.85170 33447 ft 464 kts 315°
2026-04-21 17:16 4.08936 -53.87413 32862 ft 462 kts 316°
2026-04-21 17:17 4.11250 -53.89648 32276 ft 460 kts 316°
2026-04-21 17:17 4.13561 -53.91885 31650 ft 459 kts 316°
2026-04-21 17:17 4.15831 -53.94087 31045 ft 458 kts 316°
2026-04-21 17:17 4.18133 -53.96313 30450 ft 457 kts 316°
2026-04-21 17:18 4.20414 -53.98523 29835 ft 455 kts 316°
2026-04-21 17:18 4.22677 -54.00718 29122 ft 451 kts 316°
2026-04-21 17:18 4.24920 -54.02888 28473 ft 445 kts 316°
2026-04-21 17:18 4.27136 -54.05033 27856 ft 439 kts 316°
2026-04-21 17:19 4.29296 -54.07126 27288 ft 433 kts 316°
2026-04-21 17:19 4.31450 -54.09210 26695 ft 428 kts 316°
2026-04-21 17:19 4.33587 -54.11277 26119 ft 424 kts 315°
2026-04-21 17:19 4.35696 -54.13319 25552 ft 419 kts 315°
2026-04-21 17:20 4.37754 -54.15313 25015 ft 413 kts 315°
2026-04-21 17:20 4.39800 -54.17305 24445 ft 409 kts 315°
2026-04-21 17:20 4.41839 -54.19282 23871 ft 405 kts 315°
2026-04-21 17:20 4.43853 -54.21232 23293 ft 400 kts 315°
2026-04-21 17:21 4.45845 -54.23159 22672 ft 395 kts 315°
2026-04-21 17:21 4.47808 -54.25060 22076 ft 391 kts 315°
2026-04-21 17:21 4.49759 -54.26956 21498 ft 387 kts 315°
2026-04-21 17:21 4.51679 -54.28827 20937 ft 382 kts 315°
2026-04-21 17:22 4.53566 -54.30665 20429 ft 377 kts 315°
2026-04-21 17:22 4.55441 -54.32486 19931 ft 372 kts 315°
2026-04-21 17:22 4.57295 -54.34278 19460 ft 367 kts 315°
2026-04-21 17:22 4.59117 -54.36043 18983 ft 362 kts 315°
2026-04-21 17:23 4.60899 -54.37776 18540 ft 357 kts 315°
2026-04-21 17:23 4.62676 -54.39502 18093 ft 353 kts 316°
2026-04-21 17:23 4.64430 -54.41199 17613 ft 349 kts 316°
2026-04-21 17:23 4.66190 -54.42898 17152 ft 350 kts 316°
2026-04-21 17:24 4.68066 -54.44463 16724 ft 351 kts 321°
2026-04-21 17:24 4.69968 -54.45934 16303 ft 351 kts 322°
2026-04-21 17:24 4.71909 -54.47426 15884 ft 351 kts 322°
2026-04-21 17:24 4.73844 -54.48924 15467 ft 351 kts 321°
2026-04-21 17:25 4.75774 -54.50440 15050 ft 352 kts 321°
2026-04-21 17:25 4.77706 -54.51950 14630 ft 352 kts 321°
2026-04-21 17:25 4.79649 -54.53462 14207 ft 353 kts 321°
2026-04-21 17:25 4.81573 -54.54961 13803 ft 354 kts 322°
2026-04-21 17:26 4.83519 -54.56485 13324 ft 351 kts 321°
2026-04-21 17:26 4.85433 -54.57976 12891 ft 346 kts 322°
2026-04-21 17:26 4.87334 -54.59444 12485 ft 340 kts 322°
2026-04-21 17:26 4.89196 -54.60879 12082 ft 334 kts 322°
2026-04-21 17:27 4.91001 -54.62283 11697 ft 329 kts 321°
2026-04-21 17:27 4.92794 -54.63682 11301 ft 324 kts 322°
2026-04-21 17:27 4.94576 -54.65069 10917 ft 323 kts 322°
2026-04-21 17:27 4.96365 -54.66451 10585 ft 323 kts 322°
2026-04-21 17:28 4.98135 -54.67813 10327 ft 318 kts 322°
2026-04-21 17:28 4.99868 -54.69144 10119 ft 308 kts 322°
2026-04-21 17:28 5.01528 -54.70423 9844 ft 304 kts 322°
2026-04-21 17:28 5.03228 -54.71732 9500 ft 304 kts 322°
2026-04-21 17:29 5.04878 -54.73003 9162 ft 301 kts 322°
2026-04-21 17:29 5.06536 -54.74280 8793 ft 298 kts 322°
2026-04-21 17:29 5.08172 -54.75545 8446 ft 297 kts 322°
2026-04-21 17:29 5.09807 -54.76812 8112 ft 294 kts 322°
2026-04-21 17:30 5.11415 -54.78063 7771 ft 291 kts 322°
2026-04-21 17:30 5.13018 -54.79306 7427 ft 292 kts 322°
2026-04-21 17:30 5.14609 -54.80539 7081 ft 289 kts 322°
2026-04-21 17:30 5.16196 -54.81771 6736 ft 286 kts 322°
2026-04-21 17:31 5.17762 -54.82985 6389 ft 283 kts 322°
2026-04-21 17:31 5.19316 -54.84191 6029 ft 280 kts 322°
2026-04-21 17:31 5.20856 -54.85385 5670 ft 278 kts 322°
2026-04-21 17:31 5.22372 -54.86564 5328 ft 279 kts 322°
2026-04-21 17:32 5.23911 -54.87762 4981 ft 278 kts 322°
2026-04-21 17:32 5.25435 -54.88948 4628 ft 275 kts 322°
2026-04-21 17:32 5.26927 -54.90108 4272 ft 273 kts 322°
2026-04-21 17:32 5.28426 -54.91269 3922 ft 270 kts 322°
2026-04-21 17:33 5.29907 -54.92426 3582 ft 270 kts 322°
2026-04-21 17:33 5.31398 -54.93582 3252 ft 271 kts 323°
2026-04-21 17:33 5.32881 -54.94734 3006 ft 268 kts 323°
2026-04-21 17:33 5.34352 -54.95878 2964 ft 267 kts 323°
2026-04-21 17:34 5.35834 -54.96984 2878 ft 262 kts 328°
2026-04-21 17:34 5.37503 -54.97747 2433 ft 262 kts 341°
2026-04-21 17:34 5.39182 -54.98352 2251 ft 254 kts 342°
2026-04-21 17:34 5.40817 -54.98942 2114 ft 245 kts 341°
2026-04-21 17:35 5.42391 -54.99515 2000 ft 236 kts 341°
2026-04-21 17:35 5.43897 -55.00079 1962 ft 225 kts 337°
2026-04-21 17:35 5.45063 -55.00988 1942 ft 210 kts 304°
2026-04-21 17:35 5.45476 -55.02327 1960 ft 195 kts 274°
2026-04-21 17:36 5.45428 -55.03609 2007 ft 173 kts 268°
2026-04-21 17:36 5.45357 -55.04770 2024 ft 161 kts 269°
2026-04-21 17:36 5.45345 -55.05832 1974 ft 147 kts 273°
2026-04-21 17:36 5.45338 -55.06849 1916 ft 148 kts 272°
2026-04-21 17:37 5.45324 -55.07886 1792 ft 148 kts 274°
2026-04-21 17:37 5.45326 -55.08892 1713 ft 142 kts 273°
2026-04-21 17:37 5.45308 -55.09550 1583 ft 141 kts 272°
2026-04-21 17:37 5.45274 -55.10847 1230 ft 141 kts 273°
2026-04-21 17:38 5.45274 -55.11822 1030 ft 137 kts 275°
2026-04-21 17:38 5.45301 -55.12785 1025 ft 140 kts 275°
2026-04-21 17:38 5.45291 -55.13767 919 ft 141 kts 274°
2026-04-21 17:38 5.45297 -55.14757 651 ft 142 kts 275°
2026-04-21 17:39 5.45306 -55.15726 559 ft 140 kts 273°
2026-04-21 17:39 5.45306 -55.16727 267 ft 145 kts 271°
2026-04-21 17:39 5.45288 -55.17740 80 ft 142 kts 278°
2026-04-21 17:39 5.45294 -55.18649 63 ft 104 kts 265°
2026-04-21 17:40 5.45289 -55.19171 65 ft 47 kts 269°
2026-04-21 17:40 5.45281 -55.19398 67 ft 29 kts 269°
2026-04-21 17:40 5.45277 -55.19593 67 ft 27 kts 269°
2026-04-21 17:40 5.45288 -55.19721 62 ft 14 kts 333°
2026-04-21 17:41 5.45372 -55.19734 66 ft 5 kts 351°
2026-04-21 17:41 5.45375 -55.19734 66 ft 0 kts 351°
2026-04-21 17:42 5.45385 -55.19736 66 ft 3 kts 352°
2026-04-21 17:43 5.45414 -55.19741 65 ft 6 kts 345°
2026-04-21 17:43 5.45450 -55.19777 61 ft 9 kts 287°
2026-04-21 17:43 5.45455 -55.19853 64 ft 13 kts 269°
2026-04-21 17:43 5.45454 -55.19953 64 ft 15 kts 270°
2026-04-21 17:44 5.45454 -55.20018 64 ft 7 kts 271°
2026-04-21 17:44 5.45474 -55.20058 64 ft 6 kts 13°
2026-04-21 17:44 5.45475 -55.20022 64 ft 5 kts 107°
2026-04-21 17:44 5.45488 -55.20007 60 ft 0 kts 347°
2026-04-21 17:45 5.45500 -55.20007 62 ft 4 kts
2026-04-21 17:45 5.45528 -55.20007 59 ft 0 kts